This is the latest recevied weather packets stored in our database for station/object OK1ZDJ-13. If no packets are shown the sender has not sent any weather packets the latest 10 day(s).
| Time | Temp. | Humidity | Pressure | Rain* | Wind** | Luminosity | Snow |
|---|---|---|---|---|---|---|---|
| 1777223835 | 13.89° C | 29% | 1024.5 hPa | - | - | - | - |
| 1777222635 | 15° C | 26% | 1024.5 hPa | - | - | - | - |
| 1777222035 | 15° C | 25% | 1024.5 hPa | - | - | - | - |
| 1777221435 | 15.56° C | 25% | 1024.5 hPa | - | - | - | - |
| 1777220835 | 15.56° C | 24% | 1024.6 hPa | - | - | - | - |
| 1777219635 | 17.78° C | 23% | 1024.6 hPa | - | - | - | - |
| 1777219035 | 16.67° C | 23% | 1024.5 hPa | - | - | - | - |
| 1777218435 | 16.11° C | 24% | 1024.6 hPa | - | - | - | - |
| 1777217840 | 16.67° C | 24% | 1024.6 hPa | - | - | - | - |
| 1777217234 | 16.11° C | 24% | 1024.6 hPa | - | - | - | - |
| 1777216634 | 16.11° C | 23% | 1024.5 hPa | - | - | - | - |
| 1777216034 | 17.78° C | 22% | 1024.6 hPa | - | - | - | - |
| 1777215434 | 17.78° C | 22% | 1024.6 hPa | - | - | - | - |
| 1777214834 | 17.78° C | 21% | 1024.6 hPa | - | - | - | - |
| 1777214234 | 16.67° C | 23% | 1024.7 hPa | - | - | - | - |
| 1777213634 | 15° C | 24% | 1024.6 hPa | - | - | - | - |
| 1777213034 | 14.44° C | 25% | 1024.6 hPa | - | - | - | - |
| 1777212434 | 14.44° C | 25% | 1024.6 hPa | - | - | - | - |
| 1777211834 | 14.44° C | 27% | 1024.7 hPa | - | - | - | - |
| 1777211234 | 14.44° C | 26% | 1024.5 hPa | - | - | - | - |
| 1777210034 | 13.89° C | 26% | 1024.7 hPa | - | - | - | - |
| 1777209434 | 13.89° C | 26% | 1024.8 hPa | - | - | - | - |
| 1777208834 | 13.89° C | 27% | 1024.9 hPa | - | - | - | - |
| 1777208234 | 13.89° C | 27% | 1024.9 hPa | - | - | - | - |
| 1777207634 | 13.33° C | 27% | 1024.9 hPa | - | - | - | - |
* Rain since midnight (hover to see other rain measurements)
** Current wind speed in m/s (hover to see current wind gust speed)